Погода в Бирске

Погода в Бирске : погода сейчас, прогноз погоды и архив. Всё, что Вы хотите узнать о погоде в Бирске!

Хотите узнать прогноз погоды в Бирске? Тогда Вам сюда: Погода в Бирске

Поиск расширенной информации на нашем сайте:

Другие новости

Новости СМИ2

Главная страница сайта

Новости сайта

03.07.2017

Напоминаем, что на нашем специализированном сайте Метеоцентр.Азия вы можете получить высокодетализированные автоматические прогнозы погоды по пунктам России, СНГ и мира в авиационном формате (включающие направление и скорость ветра, видимость, явления погоды, количество и форму облачности, нижнюю и верхнюю границу облачности).

Рекомендуем: Английский язык в Одинцово

Погода в Бирске - сегодня

Время (UTC), дата Ветер
(°,м/с) 
Видим.   Явления Облачность Т
(°С)
Тd
(°С)
f(%) Тe
(°С)
Pmin
(гПа)
dP
(гПа)
Po
(мм)
O2
(г/м3)
Тmin Tmax R s Состояние
почвы
00 21.09.17 250 (З) 10 км    8/8 600 м 
[Sc]
+9.7 +6.9 83 +10  1022.2  0.5  750  291           
03 21.09.17 250 (З) 20000 м    9/4 600 м средняя 
[Sc|Ac lent]
+10.2 +7.7 84 +10  1023.3  1.1  751  290  +9        сухая 
06 21.09.17 260 (З) 20000 м    9/9 300 м 
[Frnb]
+12.4 +8.7 78 +13  1023.9  0.7  751  288           
09 21.09.17 250 (З) 20000 м    9/9 600 м кучево-дожд. 
[Cb cap]
+14.2 +7.9 66 +14  1023.8  0.1  751  286           
12 21.09.17 340 (С) 20000 м    10/10 600 м 
[Sc]
+12.1 +7.5 73 +12  1024.7  0.7  752  289           
15 21.09.17 350 (С) 10 км  слаб. дождь  10/10 300 м 
[Frnb]
+10.2 +6.8 79 +9  1025.6  0.8  752  291    +14.2  0.3     
18 21.09.17 350 (С) 10 км  {дождь}  9/9 600 м кучево-дожд. 
[Cb cap]
+7.8 +6.2 90 +7  1026.3  0.5  753  294           
21 21.09.17 340 (С) 10 км    10/10 600 м 
[Sc]
+7.3 +4.8 84 +7  1026.8  0.4  753  295           
00 22.09.17 350 (С) 4000 м  слаб. дождь  10/4 600 м средняя 
[Sc|As op]
+7 +5.5 90 +6  1027.4  0.6  753  295           
03 22.09.17 040 (СВ) 20000 м  в посл. час дождь  10/10 300 м 
[St]
+8.1 +6.4 89 +7  1029.1  1.7  755  294  +6.8      влажная 
06 22.09.17 040 (СВ) 20000 м  {дождь}  9/9 300 м кучево-дожд. 
[Cb cap]
+8.7 +4.3 74 +8  1030.8  1.8  756  295           
09 22.09.17 020 (С) 4{10}  20000 м    9/9 600 м 
[Sc]
+9.9 +3.1 63 +9  1031.8  757  294           
12 22.09.17 020 (С) 20000 м    9/9 600 м 
[Sc]
+10.4 +1.8 55 +10  1032.8  1.1  758  294           
15 22.09.17 350 (С) 10 км    6/4 600 м средняя 
[Sc|Ac trans]
+8.4 +2.6 67 +8  1033.8  0.8  758  296    +10.8       
18 22.09.17 030 (СВ) 10 км    ясно 
+4.5 +1.8 83 +3  1035.7  1.5  759  301           
21 22.09.17 040 (СВ) 10 км    ясно 
+3 +1.1 87 +2  1036.5  0.7  760  303           
00 23.09.17 040 (СВ) 10 км    9/0 средняя 
[Ac trans]
+3.6 +2.3 91 +2  1037.3  0.8  760  302           
03 23.09.17 010 (С) 20000 м    9/9 600 м 
[Sc]
+3.6 +1.8 88 +3  1038.1  0.8  761  302  +2.6        сухая 
06 23.09.17 300 (СЗ) 0500 м    9/9 600 м 
[Sc]
+5.3 +2.2 80 +6  1038  761  300           
09 23.09.17 290 (З) 20000 м    9/9 600 м 
[Sc]
+6.9 +2.6 74 +7  1037.4  -0.4  761  299           
12 23.09.17 290 (З) 20000 м    9/8 600 м средняя 
[Sc|Ac trans]
+6.6 +2 72 +6  1036  -1.4  760  299           
15 23.09.17 020 (С) 10 км    10/10 600 м 
[Sc]
+6.1 +2 75 +7  1035  -1  759  299    +7       
18 23.09.17 140 (ЮВ) 10 км    10/10 600 м 
[Sc]
+5.8 +2 77 +7  1033.6  -1.4  758  299           
21 23.09.17 220 (ЮЗ) 10 км    10/10 600 м 
[Sc]
+5.5 +2.9 83 +6  1032.5  -1.1  757  299           
00 24.09.17 230 (ЮЗ) 10 км    10/10 600 м 
[Sc]
+5.2 +3.4 88 +6  1031.6  -0.9  756  299           
Время (UTC), дата Ветер
(°,м/с) 
Видим.   Явления Облачность Т
(°С)
Тd
(°С)
f(%) Тe
(°С)
Pmin
(гПа)
dP
(гПа)
Po
(мм)
O2
(г/м3)
Тmin Tmax R s Состояние
почвы

Для получения пояснительной информации подведите курсор к названию столбца.

ПОГОДА в Бирске - архив

Всё, что Вы хотите узнать о погоде в Бирске - удобно и подробно!

Выберите нужную дату (начиная с 1 января 2015* года) и нажмите кнопку "Найти".
Будут отображены архивные сводки погоды по пункту Бирск, начиная с указанной даты.


Отображать данные в формате CSV (для использования в таблицах Excel)


Внимание! Наш архив погоды предназначен исключительно для личного некоммерческого использования в познавательных целях. Если Вам необходимы официальные справки о состоянии погоды (для производственных, юридических, коммерческих и т.п. целей), обращайтесь в органы Росгидромета.

*Примечание: данная дата относится к архиву по метеостанциям СССР (Россия, СНГ, Балтия).
Архив по метеостанциям Зарубежной Европы и Азии (кроме Китая) хранится 10 дней, по другим регионам земного шара (Китай, Африка, Америка, Австралия, Океания) - 1 день.

Бирск - район местоположения метеостанции


Название, широта, долгота, высота метеостанции:
Бирск 55.4°ш. 55.5°д. 186 м над ур. моря [Российская Федерация]

Дополнительная информация

В oтличие oт бoльшинства пoгoдных сайтoв мы публикуем пoдрoбную метеoинфoрмацию в детальнoм прoфессиoнальнoм фoрмате.

Характеристики температуры и влажнoсти вoздуха измеряются на высoте 2 м в тени вдали oт зданий и деревьев.
Скoрoсть ветра измеряется на высoте 10 м (на урoвне рoста челoвека скoрoсть ветра ниже в 1.5-2 раза). Если метеoстанция нахoдится в гoрoде или в лесу, тo скoрoсть ветра занижена на 2-4 м/с пo сравнению с oткрытым местoм. Скoрoсть ветра над акватoриями крупных рек и oзёр, а также на вершинах хoлмoв на 2-5 м/с выше, чем в oбычных услoвиях.
Атмoсфернoе давление в разных тoчках местнoсти мoжет значительнo oтличаться oт давления на метеoстанции, в зависимoсти oт услoвий рельефа (при пoдъёме на 10 м давление пoнижается примернo на 1 мм рт.ст.).